GW5604 Weather Reports


time (UTC)temp
C
wind
direction
speed
KPH
gust
KPH
rain 1hr
cm
rain 24hr
cm
rain mn
cm
humidity
%
barometer
mb
20260504201521 17 37 9.7 11.3 0.00 0.00 0.00 46 1015.6
20260504201019 17 132 4.8 4.8 0.00 0.00 0.00 47 1015.7
20260504200515 18 39 4.8 8.0 0.00 0.00 0.00 47 1015.6
20260504200012 18 100 8.0 9.7 0.00 0.00 0.00 44 1015.8
20260504195508 17 24 6.4 8.0 0.00 0.00 0.00 45 1015.7
20260504195005 17 151 4.8 8.0 0.00 0.00 0.00 46 1015.7
20260504194501 18 359 8.0 9.7 0.00 0.00 0.00 44 1015.9
20260504193957 17 196 3.2 3.2 0.00 0.00 0.00 48 1015.9
20260504193454 18 64 4.8 4.8 0.00 0.00 0.00 46 1016.1
20260504192953 17 110 4.8 8.0 0.00 0.00 0.00 47 1015.8
20260504192449 17 23 4.8 8.0 0.00 0.00 0.00 48 1016.1
20260504191949 17 8 6.4 8.0 0.00 0.00 0.00 48 1016.3
20260504191446 16 294 8.0 9.7 0.00 0.00 0.00 49 1016.2
20260504190941 16 16 4.8 8.0 0.00 0.00 0.00 49 1016.4
20260504190437 16 36 4.8 4.8 0.00 0.00 0.00 50 1016.5
20260504185934 16 41 3.2 4.8 0.00 0.00 0.00 48 1016.4
20260504185431 16 200 4.8 4.8 0.00 0.00 0.00 50 1016.5
20260504184927 16 32 6.4 11.3 0.00 0.00 0.00 48 1016.4
20260504184423 17 294 4.8 8.0 0.00 0.00 0.00 47 1016.6
20260504183919 17 156 0.0 0.0 0.00 0.00 0.00 45 1016.6
20260504183417 18 175 4.8 4.8 0.00 0.00 0.00 44 1016.7
20260504182914 17 208 3.2 4.8 0.00 0.00 0.00 45 1016.8
20260504182411 17 151 1.6 1.6 0.00 0.00 0.00 47 1016.8
20260504181908 16 173 1.6 1.6 0.00 0.00 0.00 49 1016.8
20260504181405 16 34 3.2 3.2 0.00 0.00 0.00 50 1016.8
20260504180904 16 149 1.6 1.6 0.00 0.00 0.00 48 1017.1
20260504180402 17 196 3.2 3.2 0.00 0.00 0.00 47 1017.0
20260504175900 17 168 1.6 3.2 0.00 0.00 0.00 43 1016.8
20260504175356 17 99 6.4 9.7 0.00 0.00 0.00 42 1017.0
20260504174854 17 57 4.8 8.0 0.00 0.00 0.00 45 1016.7
20260504174352 16 121 1.6 1.6 0.00 0.00 0.00 46 1016.8
20260504173849 16 130 6.4 9.7 0.00 0.00 0.00 45 1017.0
20260504173345 16 151 16.1 20.9 0.00 0.00 0.00 44 1016.6
20260504172842 16 77 9.7 14.5 0.00 0.00 0.00 42 1016.8
20260504172339 16 131 6.4 8.0 0.00 0.00 0.00 43 1017.1
20260504171835 16 131 1.6 3.2 0.00 0.00 0.00 48 1017.2
20260504171332 16 90 4.8 4.8 0.00 0.00 0.00 44 1017.1
20260504170830 16 125 3.2 3.2 0.00 0.00 0.00 45 1017.1
20260504170326 16 103 9.7 12.9 0.00 0.00 0.00 43 1017.1
20260504160244 13 137 17.7 27.4 0.00 0.00 0.00 51 1017.7
20260504150710 10 190 16.1 20.9 0.00 0.00 0.00 59 1018.8
20260504150207 10 102 8.0 12.9 0.00 0.00 0.00 58 1018.8
20260504141136 11 141 17.7 20.9 0.00 0.00 0.00 55 1018.1
20260504140632 11 142 8.0 14.5 0.00 0.00 0.00 56 1018.2
20260504140128 11 81 8.0 11.3 0.00 0.00 0.00 55 1018.3
20260504130556 10 137 3.2 3.2 0.00 0.00 0.00 61 1017.4
20260504110444 6 150 1.6 1.6 0.00 0.00 0.00 68 1016.8
20260504100407 6 136 3.2 3.2 0.00 0.00 0.00 66 1016.6
20260504081800 7 112 9.7 12.9 0.00 0.00 0.00 60 1016.1
20260504081256 7 117 16.1 22.5 0.00 0.00 0.00 60 1015.9
20260504080753 7 145 12.9 16.1 0.00 0.00 0.00 59 1016.2
20260504080249 7 118 9.7 12.9 0.00 0.00 0.00 59 1016.2
20260504070217 7 108 4.8 4.8 0.00 0.00 0.00 53 1016.6
20260504060137 7 136 3.2 3.2 0.00 0.00 0.00 46 1016.8
20260504050605 7 139 3.2 3.2 0.00 0.00 0.00 52 1017.4
20260504045559 7 104 3.2 3.2 0.00 0.00 0.00 53 1017.2
20260504045054 7 130 3.2 3.2 0.00 0.00 0.00 51 1017.5
20260504044552 7 123 1.6 3.2 0.00 0.00 0.00 51 1017.4
20260504044049 7 73 6.4 8.0 0.00 0.00 0.00 53 1017.2
20260504043546 7 126 3.2 3.2 0.00 0.00 0.00 52 1017.1
20260504043043 7 133 3.2 3.2 0.00 0.00 0.00 52 1017.0
20260504042540 6 140 3.2 3.2 0.00 0.00 0.00 51 1017.1
20260504042037 6 146 1.6 1.6 0.00 0.00 0.00 52 1017.0
20260504041533 7 154 1.6 1.6 0.00 0.00 0.00 51 1017.0
20260504041029 7 120 3.2 3.2 0.00 0.00 0.00 50 1017.0
20260504040527 7 93 4.8 4.8 0.00 0.00 0.00 50 1016.8
20260504040023 7 145 1.6 1.6 0.00 0.00 0.00 49 1017.1
20260504035520 7 144 3.2 3.2 0.00 0.00 0.00 47 1017.4
20260504035016 7 144 1.6 1.6 0.00 0.00 0.00 50 1017.2
20260504034514 7 141 1.6 1.6 0.00 0.00 0.00 51 1016.8
20260504034011 7 161 1.6 1.6 0.00 0.00 0.00 50 1016.8
20260504033509 7 142 4.8 4.8 0.00 0.00 0.00 49 1017.0
20260504033006 7 140 3.2 3.2 0.00 0.00 0.00 48 1016.6
20260504032503 7 145 1.6 1.6 0.00 0.00 0.00 47 1016.8
20260504031959 7 133 1.6 1.6 0.00 0.00 0.00 47 1016.6
20260504031456 7 53 3.2 4.8 0.00 0.00 0.00 48 1017.0
20260504030953 7 92 3.2 3.2 0.00 0.00 0.00 50 1017.1
20260504030450 7 135 1.6 3.2 0.00 0.00 0.00 50 1016.7
20260504025946 7 57 4.8 8.0 0.00 0.00 0.00 50 1017.0
20260504025443 7 53 4.8 4.8 0.00 0.00 0.00 50 1016.8
20260504024940 7 77 6.4 8.0 0.00 0.00 0.00 51 1017.0
20260504024437 7 148 3.2 4.8 0.00 0.00 0.00 51 1017.4
20260504023934 7 128 3.2 3.2 0.00 0.00 0.00 50 1017.3
20260504023430 7 117 4.8 8.0 0.00 0.00 0.00 50 1017.1
20260504022926 7 68 6.4 8.0 0.00 0.00 0.00 50 1017.3
20260504022423 7 94 4.8 4.8 0.00 0.00 0.00 50 1017.3
20260504021919 7 107 4.8 4.8 0.00 0.00 0.00 49 1017.1
20260504021417 7 108 3.2 4.8 0.00 0.00 0.00 50 1017.0
20260504020914 7 124 3.2 3.2 0.00 0.00 0.00 49 1017.3
20260504020410 7 131 3.2 3.2 0.00 0.00 0.00 49 1017.1
20260504015907 7 129 3.2 3.2 0.00 0.00 0.00 48 1017.0
20260504015403 7 91 4.8 4.8 0.00 0.00 0.00 49 1016.7
20260504014859 7 136 4.8 4.8 0.00 0.00 0.00 48 1016.6
20260504014355 7 148 4.8 4.8 0.00 0.00 0.00 49 1017.0
20260504013853 7 143 1.6 3.2 0.00 0.00 0.00 50 1016.8
20260504013351 7 130 3.2 3.2 0.00 0.00 0.00 50 1016.8
20260504012847 7 126 1.6 3.2 0.00 0.00 0.00 49 1016.8
20260504012345 7 146 1.6 1.6 0.00 0.00 0.00 49 1016.7
20260504011842 7 154 1.6 1.6 0.00 0.00 0.00 49 1017.0
20260504011338 7 146 1.6 3.2 0.00 0.00 0.00 48 1016.6
20260504010835 8 142 1.6 1.6 0.00 0.00 0.00 48 1016.4
20260504010330 8 143 1.6 1.6 0.00 0.00 0.00 47 1016.4
20260504005827 8 132 4.8 4.8 0.00 0.00 0.00 46 1016.3
20260504005324 8 100 4.8 4.8 0.00 0.00 0.00 46 1016.4
20260504004821 8 136 3.2 4.8 0.00 0.00 0.00 47 1016.4
20260504004319 8 127 1.6 1.6 0.00 0.00 0.00 47 1016.2
20260504003815 8 143 3.2 3.2 0.00 0.00 0.00 47 1016.4
20260504003313 8 150 1.6 3.2 0.00 0.00 0.00 47 1016.3
20260504002809 8 128 1.6 3.2 0.00 0.00 0.00 46 1016.5
20260504002306 8 159 1.6 1.6 0.00 0.00 0.00 47 1016.3
20260504001803 9 145 3.2 4.8 0.00 0.00 0.00 46 1016.3
20260504001300 9 120 6.4 9.7 0.00 0.00 0.00 44 1016.3
20260504000757 10 144 3.2 3.2 0.00 0.00 0.00 44 1016.4
20260504000254 10 110 4.8 8.0 0.00 0.00 0.00 42 1016.4
20260503235752 10 135 3.2 3.2 0.00 0.00 0.00 43 1016.1
20260503235249 10 150 4.8 4.8 0.00 0.00 0.00 43 1016.3
20260503234747 10 103 6.4 9.7 0.00 0.00 0.00 42 1016.3
20260503234245 10 132 4.8 4.8 0.00 0.00 0.00 42 1016.4
20260503233741 10 89 4.8 4.8 0.00 0.00 0.00 42 1015.9
20260503233237 11 90 4.8 8.0 0.00 0.00 0.00 42 1016.2
20260503232734 11 115 4.8 4.8 0.00 0.00 0.00 41 1016.3
20260503232231 11 91 4.8 4.8 0.00 0.00 0.00 41 1016.1
20260503231730 11 125 3.2 3.2 0.00 0.00 0.00 42 1016.3
20260503231226 11 100 6.4 9.7 0.00 0.00 0.00 41 1016.1
20260503230722 11 113 8.0 11.3 0.00 0.00 0.00 41 1016.1
20260503230220 11 143 8.0 12.9 0.00 0.00 0.00 39 1016.2
20260503225717 11 143 8.0 12.9 0.00 0.00 0.00 39 1015.9
20260503225217 11 161 8.0 11.3 0.00 0.00 0.00 39 1015.9
20260503224715 11 108 8.0 9.7 0.00 0.00 0.00 39 1016.1
20260503224212 11 131 4.8 4.8 0.00 0.00 0.00 39 1016.2
20260503223710 11 107 4.8 4.8 0.00 0.00 0.00 38 1016.2
20260503223207 11 138 3.2 3.2 0.00 0.00 0.00 40 1016.1
20260503222703 12 132 6.4 8.0 0.00 0.00 0.00 38 1016.2
20260503222201 12 127 4.8 4.8 0.00 0.00 0.00 38 1015.9
20260503221659 11 147 6.4 12.9 0.00 0.00 0.00 39 1016.2
20260503221156 11 161 12.9 16.1 0.00 0.00 0.00 38 1016.1
20260503220653 12 112 8.0 11.3 0.00 0.00 0.00 36 1016.2
20260503220149 12 141 8.0 9.7 0.00 0.00 0.00 38 1016.2
20260503215647 12 124 4.8 4.8 0.00 0.00 0.00 37 1016.1
20260503215143 12 118 6.4 9.7 0.00 0.00 0.00 37 1015.8
20260503214642 12 119 3.2 4.8 0.00 0.00 0.00 39 1016.1
20260503214137 12 142 3.2 4.8 0.00 0.00 0.00 36 1016.1
20260503213632 12 113 3.2 3.2 0.00 0.00 0.00 39 1016.2
20260503213128 12 136 8.0 9.7 0.00 0.00 0.00 39 1016.3
20260503212625 12 128 8.0 11.3 0.00 0.00 0.00 38 1016.4
20260503212123 11 123 3.2 3.2 0.00 0.00 0.00 38 1016.2
20260503211620 12 109 8.0 11.3 0.00 0.00 0.00 37 1016.2
20260503211115 12 101 6.4 9.7 0.00 0.00 0.00 39 1016.2
20260503210612 12 150 12.9 14.5 0.00 0.00 0.00 38 1016.5
20260503210109 12 125 8.0 9.7 0.00 0.00 0.00 38 1016.3
20260503205605 12 137 4.8 4.8 0.00 0.00 0.00 39 1016.5
20260503205101 12 146 6.4 8.0 0.00 0.00 0.00 36 1016.2
20260503204558 12 156 4.8 4.8 0.00 0.00 0.00 36 1016.6
20260503204055 11 152 4.8 8.0 0.00 0.00 0.00 37 1016.5
20260503203552 12 66 8.0 9.7 0.00 0.00 0.00 36 1016.6
20260503203049 11 153 12.9 16.1 0.00 0.00 0.00 37 1016.5
20260503202547 12 159 8.0 11.3 0.00 0.00 0.00 37 1016.7
20260503202039 11 123 4.8 4.8 0.00 0.00 0.00 37 1016.7